Regional Weather Roundup
Issued by NWS Northern Indiana

Home | Current Version | Previous Version | Graphics & Text | Print | Product List | Glossary On
Versions: 1 2 3 4 5 6 7 8 9 10 11 12 13 14 15 16 17 18 19 20 21 22 23 24 25 26 27 28 29 30 31 32 33 34 35 36 37 38 39 40 41 42 43 44 45 46 47 48 49 50
000
ASUS43 KIWX 061910
RWRIWX

KIWX WEATHER ROUNDUP
NATIONAL WEATHER SERVICE NORTHERN INDIANA
300 PM EDT WED MAY 06 2015

NOTE: "FAIR" INDICATES FEW OR NO CLOUDS BELOW 12,000 FEET WITH NO
SIGNIFICANT WEATHER AND/OR OBSTRUCTIONS TO VISIBILITY.

* THESE STATIONS ARE NOT UNDER NWS QUALITY CONTROL. THEY ALSO MAY NOT
  REPORT WEATHER SUCH AS PRECIPITATION OR FOG.

INZ001>027-062000-
NORTHERN INDIANA

CITY           SKY/WX    TMP DP  RH WIND       PRES   REMARKS
GARY*          MOSUNNY   72 N/A N/A SE5       30.14F HAZE
VALPARAISO     SUNNY     80  60  50 W7        30.14F
MICHIGAN CITY* SUNNY     79  54  41 SW3       30.15S
LAPORTE*       SUNNY     81  62  53 SW9       30.16F
KNOX*          SUNNY     81  34  18 SW8       30.14F
SOUTH BEND     SUNNY     79  61  53 SE6       30.16F
GOSHEN         SUNNY     76  61  59 CALM      30.17F
MONTICELLO*    SUNNY     82  59  45 S6        30.14S
LOGANSPORT*    MOSUNNY   81  54  39 S5        30.16F
ROCHESTER*     SUNNY     82  59  44 S3        30.16F
WARSAW*        SUNNY     77  61  57 S7        30.17S
ANGOLA*        SUNNY     70  63  78 S5        30.19F
FORT WAYNE     MOSUNNY   78  60  53 CALM      30.18F
HUNTINGTON*    SUNNY     78  58  50 S3        30.17F
PERU/GRISSOM   MOSUNNY   80  60  50 SE1       30.14F
MARION*        MOSUNNY   79  55  42 SE3       30.17F

$$
INZ028>050-062000-
CENTRAL INDIANA

CITY           SKY/WX    TMP DP  RH WIND       PRES   REMARKS
LAFAYETTE      PTSUNNY   82  49  31 CALM      30.13F
KOKOMO*        MOSUNNY   84  57  39 SW7       30.15F
MUNCIE*        MOSUNNY   82  53  36 CALM      30.17F
INDIANAPOLIS   PTSUNNY   80  53  39 S7        30.15F

$$
MIZ043>046-050>051-056>058-064>065-071>073-077>080-062000-
SOUTHWEST LOWER MICHIGAN

CITY           SKY/WX    TMP DP  RH WIND       PRES   REMARKS
BATTLE CREEK   SUNNY     70  60  70 SE7       30.19F
BENTON HARBOR  SUNNY     74  61  63 W7        30.16S
COLDWATER*     MOSUNNY   68  61  76 SE3       30.19F
HILLSDALE*     MOSUNNY   66  62  84 E7        30.21F FOG
HOLLAND        SUNNY     75  62  64 E7        30.17F
GRAND RAPIDS   MOSUNNY   69  59  70 E9        30.18F
KALAMAZOO      MOSUNNY   74  61  63 VRB3      30.18F
STURGIS*       SUNNY     72  63  73 E3        30.18F
THREE RIVERS*  FAIR      73  62  67 E6        30.18F

$$
OHZ001>008-015>018-024>025-062000-
NORTHWEST OHIO

CITY           SKY/WX    TMP DP  RH WIND       PRES   REMARKS
WAUSEON*       PTSUNNY   66  63  88 VRB6      30.21F HAZE
DEFIANCE       SUNNY     69  60  73 VRB7      30.20F HAZE
FINDLAY        MOSUNNY   74  59  59 NE5       30.18F
TOLEDO EXPRESS SUNNY     68  57  68 E6        30.21F
TOLEDO METCALF PTSUNNY   66  57  72 VRB7      30.23S
LIMA           SUNNY     78  59  51 N7        30.18F

$$
AND FOR LAKE MICHIGAN COASTAL AND OPEN LAKE BUOY OBSERVATIONS

STATION/POSITION TEMP    WIND        PRES    VSBY  WAVE
                 AIR SEA DIR/SP/G                  HT/PER
                 (F)     (DEG/KT/KT) (MB)    (MI)  (FT/S)
CALUMET HARBOR    55     350/  6/  8   N/A
MICHIGAN CITY     55      20/  8/  9   N/A
BURNS HARBOR      58      70/  7/  9 1021.3S
SAINT JOSEPH      59     350/  5/  6 1021.3F
4 MI NW BRIDGMAN  54 53   30/  8/  8   N/A           0
MICHIGAN CITY     53 53   40/  8/  8   N/A           1

$$
&&



USA.gov is the U.S. government's official web portal to all federal, state and local government web resources and services.